Weather History for Point Salines, Grenada

Change the Weather History Date:

Saturday, June 29, 2013

  Actual Average Record
Temperature  
Mean Temperature 80 °F -  
Max Temperature 83 °F 84 °F 87 °F (1999)
Min Temperature 76 °F 76 °F 32 °F (2004)
Cooling Degree Days 14    
Growing Degree Days 30 (Base 50)    
Moisture  
Dew Point 76 °F    
Average Humidity 87    
Maximum Humidity 97    
Minimum Humidity 76    
Precipitation  
Precipitation 0.59 in - - ()
Sea Level Pressure  
Sea Level Pressure 29.91 in    
Wind  
Wind Speed 12 mph ()    
Max Wind Speed 28 mph    
Max Gust Speed 39 mph    
Visibility 7.0 miles    
Events Rain    
Averages and records for this station are not official NWS values.
T = Trace of Precipitation, MM = Missing Value Source: Averaged Metar Reports

Daily Weather History Graph

Daily Weather History Graph

Search for Another Location

Airport:

Trip Planner

Search our weather history database for the weather conditions in past years. The results will help you decide how hot, cold, wet, or windy it might be!

Date:

Astronomy

Jun. 29, 2013 Rise Set
Actual Time 5:45 AM AST 6:35 PM AST
Civil Twilight 5:22 AM AST 6:58 PM AST
Nautical Twilight 4:55 AM AST 7:25 PM AST
Astronomical Twilight 4:27 AM AST 7:53 PM AST
Moon 11:53 PM AST (6/29) 11:37 AM AST (6/29)
Length of Visible Light 13h 35m
Length of Day
12h 49m
Waning Gibbous, 56% of the Moon is Illuminated
Jun 29
Waning Gibbous
Jun 30
Last Quarter
Jul 8
New
Jul 15
First Quarter
Jul 22
Full

Hourly Weather History & Observations

Time (AST) Temp. Heat Index Dew Point Humidity Pressure Visibility Wind Dir Wind Speed Gust Speed Precip Events Conditions
12:00 AM 77.0 °F - 75.2 °F 94% 29.89 in 6.2 mi Calm Calm - N/A   Mostly Cloudy
1:00 AM 77.0 °F - 75.2 °F 94% 29.86 in 6.2 mi East 4.6 mph - N/A   Mostly Cloudy
2:00 AM 76 °F - 75 °F 97% 29.88 in 9 mi East 5.8 mph - -   Widespread Dust
2:00 AM 77.0 °F - 75.2 °F 94% 29.86 in 6.2 mi East 5.8 mph - N/A   Mostly Cloudy
3:00 AM 78.8 °F - 77.0 °F 94% 29.86 in 6.2 mi SE 16.1 mph - N/A   Mostly Cloudy
4:00 AM 78.8 °F - 75.2 °F 89% 29.86 in 6.2 mi SE 18.4 mph - N/A   Mostly Cloudy
5:00 AM 79 °F - 75 °F 85% 29.88 in 9 mi ESE 15.0 mph - -   Widespread Dust
5:00 AM 78.8 °F - 75.2 °F 89% 29.86 in 6.2 mi ESE 15.0 mph - N/A   Mostly Cloudy
6:00 AM 80.6 °F 86.2 °F 75.2 °F 84% 29.89 in 6.2 mi ESE 17.3 mph - N/A   Mostly Cloudy
7:00 AM 80.6 °F 87.1 °F 77.0 °F 89% 29.92 in 1.9 mi SSE 27.6 mph 39.1 mph N/A Rain Heavy Rain Showers
8:00 AM 78 °F - 77 °F 96% 29.93 in 6 mi ESE 15.0 mph - - Rain Light Rain Showers
8:00 AM 78.8 °F - 77.0 °F 94% 29.92 in 5.6 mi ESE 15.0 mph - N/A   Mostly Cloudy
9:00 AM 80.6 °F 87.1 °F 77.0 °F 89% 29.92 in 6.2 mi ESE 19.6 mph - N/A   Mostly Cloudy
10:00 AM 82.4 °F 90.9 °F 77.0 °F 84% 29.95 in 6.2 mi SE 18.4 mph - N/A   Mostly Cloudy
11:00 AM 83 °F - 78 °F 79% 29.96 in 11 mi ESE 19.6 mph - -   Widespread Dust
11:00 AM 82.4 °F 90.9 °F 77.0 °F 84% 29.95 in 6.2 mi ESE 19.6 mph - N/A   Mostly Cloudy
12:00 PM 82.4 °F 90.9 °F 77.0 °F 84% 29.95 in 6.2 mi ESE 19.6 mph - N/A   Mostly Cloudy
1:00 PM 82.4 °F 89.5 °F 75.2 °F 79% 29.95 in 6.2 mi ESE 20.7 mph - N/A   Mostly Cloudy
2:00 PM 82 °F - 76 °F 76% 29.92 in 10 mi ESE 18.4 mph - -   Partly Cloudy
2:00 PM 82.4 °F 89.5 °F 75.2 °F 79% 29.92 in 6.2 mi ESE 18.4 mph - N/A   Mostly Cloudy
3:00 PM 82.4 °F 89.5 °F 75.2 °F 79% 29.89 in 6.2 mi ESE 20.7 mph - N/A   Mostly Cloudy
4:00 PM 80.6 °F 86.2 °F 75.2 °F 84% 29.89 in 6.2 mi ESE 18.4 mph - N/A   Mostly Cloudy
5:00 PM 81 °F - 77 °F 83% 29.89 in 11 mi ESE 20.7 mph - -   Widespread Dust
5:00 PM 80.6 °F 87.1 °F 77.0 °F 89% 29.89 in 6.2 mi ESE 20.7 mph - N/A   Mostly Cloudy
6:00 PM 78.8 °F - 73.4 °F 83% 29.89 in 6.2 mi ESE 13.8 mph - N/A   Mostly Cloudy
7:00 PM 78.8 °F - 75.2 °F 89% 29.92 in 6.2 mi East 15.0 mph - N/A   Mostly Cloudy
8:00 PM 80 °F - 77 °F 88% 29.92 in 12 mi East 15.0 mph - - Rain Light Rain Showers
8:00 PM 80.6 °F 87.1 °F 77.0 °F 89% 29.92 in 6.2 mi East 15.0 mph - N/A   Mostly Cloudy
9:00 PM 80.6 °F 86.2 °F 75.2 °F 84% 29.92 in 6.2 mi ESE 18.4 mph - N/A   Scattered Clouds
10:00 PM 80.6 °F 87.1 °F 77.0 °F 89% 29.92 in 6.2 mi ESE 18.4 mph - N/A   Scattered Clouds
11:00 PM 81 °F - 77 °F 84% 29.95 in 12 mi ESE 20.7 mph - -   Widespread Dust
11:00 PM 80.6 °F 87.1 °F 77.0 °F 89% 29.95 in 6.2 mi ESE 20.7 mph - N/A   Scattered Clouds